TimeCDT,TemperatureF,Dew PointF,Humidity,Sea Level PressureIn,VisibilityMPH,Wind Direction,Wind SpeedMPH,Gust SpeedMPH,PrecipitationIn,Events,Conditions,WindDirDegrees,DateUTC
12:15 AM,66.2,62.6,88,29.97,7.0,North,8.1,-,0.16,Rain,Heavy Rain,350,2013-06-15 05:15:00
12:35 AM,64.4,62.6,94,29.96,7.0,NNE,8.1,-,0.50,Rain,Rain,20,2013-06-15 05:35:00
12:55 AM,64.4,62.6,94,29.92,10.0,SSE,4.6,-,0.52,,Scattered Clouds,150,2013-06-15 05:55:00
1:15 AM,64.4,62.6,94,29.92,10.0,SE,3.5,-,N/A,,Clear,130,2013-06-15 06:15:00
1:35 AM,64.4,62.6,94,29.92,10.0,South,3.5,-,N/A,,Clear,190,2013-06-15 06:35:00
1:55 AM,64.4,64.4,100,29.91,10.0,SSE,3.5,-,N/A,,Clear,150,2013-06-15 06:55:00
2:15 AM,64.4,62.6,94,29.91,10.0,Calm,Calm,-,N/A,,Clear,0,2013-06-15 07:15:00
2:35 AM,64.4,62.6,94,29.91,10.0,South,3.5,-,N/A,,Clear,170,2013-06-15 07:35:00
2:55 AM,64.4,62.6,94,29.90,10.0,SSE,6.9,-,N/A,,Clear,160,2013-06-15 07:55:00
3:15 AM,64.4,62.6,94,29.91,10.0,Calm,Calm,-,N/A,,Clear,0,2013-06-15 08:15:00
3:35 AM,64.4,62.6,94,29.91,10.0,Calm,Calm,-,N/A,,Clear,0,2013-06-15 08:35:00
3:55 AM,64.4,62.6,94,29.90,10.0,SE,4.6,-,N/A,,Clear,140,2013-06-15 08:55:00
4:15 AM,64.4,62.6,94,29.90,10.0,SSE,4.6,-,N/A,,Clear,150,2013-06-15 09:15:00
4:35 AM,62.6,62.6,100,29.90,10.0,SSE,4.6,-,N/A,,Clear,160,2013-06-15 09:35:00
4:55 AM,62.6,62.6,100,29.90,10.0,SSE,3.5,-,N/A,,Clear,150,2013-06-15 09:55:00
5:15 AM,62.6,62.6,100,29.89,10.0,SSE,3.5,-,N/A,,Clear,150,2013-06-15 10:15:00
5:35 AM,62.6,62.6,100,29.89,10.0,South,5.8,-,N/A,,Clear,170,2013-06-15 10:35:00
5:55 AM,64.4,62.6,94,29.89,10.0,SE,5.8,-,N/A,,Clear,140,2013-06-15 10:55:00
6:15 AM,64.4,62.6,94,29.90,10.0,SE,4.6,-,N/A,,Clear,130,2013-06-15 11:15:00
6:35 AM,64.4,62.6,94,29.90,10.0,SSE,3.5,-,N/A,,Clear,150,2013-06-15 11:35:00
6:55 AM,64.4,62.6,94,29.90,10.0,South,5.8,-,N/A,,Clear,170,2013-06-15 11:55:00
7:15 AM,66.2,64.4,94,29.89,10.0,South,8.1,-,N/A,,Clear,170,2013-06-15 12:15:00
7:35 AM,68.0,64.4,88,29.89,10.0,South,10.4,-,N/A,,Clear,170,2013-06-15 12:35:00
7:55 AM,68.0,64.4,88,29.89,10.0,South,5.8,-,N/A,,Clear,170,2013-06-15 12:55:00
8:15 AM,71.6,66.2,83,29.90,10.0,South,6.9,-,N/A,,Clear,170,2013-06-15 13:15:00
8:35 AM,73.4,68.0,83,29.90,10.0,South,10.4,-,N/A,,Clear,170,2013-06-15 13:35:00
8:55 AM,75.2,68.0,78,29.91,7.0,South,8.1,-,N/A,,Clear,180,2013-06-15 13:55:00
9:15 AM,77.0,69.8,78,29.91,7.0,South,8.1,-,N/A,,Clear,170,2013-06-15 14:15:00
9:35 AM,78.8,69.8,74,29.90,7.0,SSE,4.6,-,N/A,,Clear,160,2013-06-15 14:35:00
9:55 AM,78.8,69.8,74,29.90,7.0,SSE,3.5,-,N/A,,Clear,160,2013-06-15 14:55:00
10:15 AM,78.8,69.8,74,29.91,7.0,South,6.9,-,N/A,,Clear,180,2013-06-15 15:15:00
10:35 AM,77.0,69.8,78,29.91,7.0,South,8.1,-,N/A,,Clear,170,2013-06-15 15:35:00
10:55 AM,77.0,68.0,74,29.91,7.0,SSE,9.2,-,N/A,,Clear,160,2013-06-15 15:55:00
11:15 AM,78.8,69.8,74,29.92,7.0,South,6.9,-,N/A,,Clear,180,2013-06-15 16:15:00
11:35 AM,78.8,66.2,65,29.94,7.0,SSW,8.1,-,N/A,,Clear,210,2013-06-15 16:35:00
11:55 AM,78.8,66.2,65,29.93,7.0,SSW,5.8,-,N/A,,Clear,210,2013-06-15 16:55:00
12:15 PM,78.8,68.0,69,29.92,7.0,SW,3.5,-,N/A,,Clear,230,2013-06-15 17:15:00
12:35 PM,80.6,66.2,61,29.93,10.0,WSW,6.9,-,N/A,,Clear,240,2013-06-15 17:35:00
12:55 PM,80.6,66.2,61,29.94,7.0,WSW,4.6,-,N/A,,Clear,250,2013-06-15 17:55:00
1:15 PM,80.6,66.2,61,29.94,7.0,West,6.9,-,N/A,,Clear,270,2013-06-15 18:15:00
1:35 PM,78.8,66.2,65,29.93,7.0,Calm,Calm,-,N/A,,Clear,0,2013-06-15 18:35:00
1:55 PM,78.8,66.2,65,29.93,7.0,NW,6.9,-,N/A,,Clear,310,2013-06-15 18:55:00
2:15 PM,78.8,66.2,65,29.95,7.0,WNW,6.9,-,N/A,,Scattered Clouds,290,2013-06-15 19:15:00
2:35 PM,77.0,68.0,74,29.94,10.0,NW,6.9,-,N/A,Rain,Light Rain,310,2013-06-15 19:35:00
2:55 PM,75.2,66.2,73,29.97,10.0,West,10.4,-,N/A,Rain,Rain,270,2013-06-15 19:55:00
3:15 PM,69.8,66.2,88,29.96,7.0,WNW,12.7,25.3,0.03,Rain,Light Rain,290,2013-06-15 20:15:00
3:35 PM,69.8,66.2,88,29.95,10.0,WNW,5.8,-,0.05,Rain,Light Rain,300,2013-06-15 20:35:00
3:55 PM,71.6,68.0,88,29.94,10.0,Calm,Calm,-,0.05,Rain,Light Rain,0,2013-06-15 20:55:00
4:15 PM,71.6,69.8,94,29.90,10.0,NE,3.5,-,N/A,,Clear,50,2013-06-15 21:15:00
4:35 PM,71.6,68.0,88,29.91,10.0,Calm,Calm,-,N/A,,Clear,0,2013-06-15 21:35:00
4:55 PM,71.6,69.8,94,29.90,10.0,East,3.5,-,N/A,Rain,Light Rain,80,2013-06-15 21:55:00
5:15 PM,71.6,69.8,94,29.92,10.0,Calm,Calm,-,N/A,Rain,Light Rain,0,2013-06-15 22:15:00
5:35 PM,71.6,69.8,94,29.90,10.0,Calm,Calm,-,0.01,Rain,Light Rain,0,2013-06-15 22:35:00
5:55 PM,71.6,69.8,94,29.90,10.0,Calm,Calm,-,0.01,,Scattered Clouds,0,2013-06-15 22:55:00
6:15 PM,71.6,69.8,94,29.91,10.0,Calm,Calm,-,N/A,Rain,Light Rain,0,2013-06-15 23:15:00
6:35 PM,71.6,69.8,94,29.91,10.0,South,4.6,-,N/A,Rain,Light Rain,180,2013-06-15 23:35:00
6:55 PM,71.6,68.0,88,29.91,10.0,Calm,Calm,-,N/A,,Scattered Clouds,0,2013-06-15 23:55:00
7:15 PM,71.6,69.8,94,29.92,10.0,SSE,5.8,-,N/A,,Mostly Cloudy,160,2013-06-16 00:15:00
7:35 PM,69.8,66.2,88,29.93,10.0,SE,6.9,-,N/A,,Overcast,140,2013-06-16 00:35:00
7:55 PM,69.8,66.2,88,29.94,10.0,SSE,11.5,-,N/A,,Overcast,150,2013-06-16 00:55:00
8:15 PM,69.8,66.2,88,29.93,10.0,SSE,5.8,-,N/A,,Mostly Cloudy,150,2013-06-16 01:15:00
8:35 PM,69.8,66.2,88,29.93,10.0,Calm,Calm,-,N/A,,Mostly Cloudy,0,2013-06-16 01:35:00
8:55 PM,69.8,66.2,88,29.93,10.0,Calm,Calm,-,N/A,,Mostly Cloudy,0,2013-06-16 01:55:00
9:15 PM,68.0,66.2,94,29.93,10.0,SE,4.6,-,N/A,,Mostly Cloudy,130,2013-06-16 02:15:00
9:35 PM,68.0,66.2,94,29.93,10.0,ESE,3.5,-,N/A,,Mostly Cloudy,120,2013-06-16 02:35:00
9:55 PM,66.2,64.4,94,29.94,10.0,ESE,3.5,-,N/A,,Mostly Cloudy,110,2013-06-16 02:55:00
10:15 PM,66.2,66.2,100,29.95,10.0,Calm,Calm,-,N/A,,Overcast,0,2013-06-16 03:15:00
10:35 PM,66.2,66.2,100,29.95,10.0,SE,3.5,-,N/A,,Overcast,140,2013-06-16 03:35:00
10:55 PM,66.2,64.4,94,29.95,10.0,SSE,3.5,-,N/A,,Overcast,150,2013-06-16 03:55:00
11:15 PM,66.2,64.4,94,29.96,10.0,Calm,Calm,-,N/A,,Overcast,0,2013-06-16 04:15:00
11:35 PM,66.2,64.4,94,29.97,10.0,SSE,4.6,-,N/A,,Overcast,160,2013-06-16 04:35:00
11:55 PM,66.2,64.4,94,29.97,10.0,South,4.6,-,N/A,,Overcast,170,2013-06-16 04:55:00